Home > Weather > Soltau > Past weeks

Flag for Germany Past Weather in Soltau, Lower Saxony, Germany — Yesterday and Last 2 Weeks

Now
72 °F

Scattered clouds.


Feels Like: 77 °F
Forecast: 56 / 73 °F
Wind: 9 mph from East

Location: Fassberg

Current Time: May 28, 2016 at 8:20:21 PM

Latest Report: May 28, 2016 at 7:20 PM


Visibility: N/A

Pressure: 29.92 "Hg

Humidity: 47%

Dew Point: 50 °F

Location of SoltauLocation

Past Weather in Soltau — Graph

°F

Soltau Temperature Yesterday

Maximum temperature yesterday: 68 °F (at 12:20 PM)
Minimum temperature yesterday: 43 °F (at 2:20 AM)
Average temperature yesterday: 57 °F

High & Low Weather Summary for the Past Weeks

 TemperatureHumidityPressure
High82 °F (May 22, 2:20 PM)100% (May 18, 4:20 AM)30.04 "Hg (May 18, 4:20 AM)
Low34 °F (May 18, 4:20 AM)30% (May 22, 2:20 PM)29.59 "Hg (May 13, 6:20 PM)
Average55 °F74%29.91 "Hg
* Reported May 13 6:20 PM — May 28 6:20 PM, Soltau, Weather by CustomWeather, © 2016

Note: Actual official high and low records may vary slightly from our data, if they occured in-between our weather recording intervals... More about our weather records

Advertising

Soltau Weather History for the Previous 24 Hours

Scroll right to see more
 ConditionsComfort  
Time TempWeatherWind HumidityBarometerVisibility
6:20 PM
Sat, May 28
72 °FScattered clouds.8 mph50%29.92 "HgN/A
5:20 PM72 °FScattered clouds.9 mph47%29.92 "HgN/A
4:20 PM72 °FScattered clouds.9 mph47%29.92 "HgN/A
3:20 PM72 °FScattered clouds.8 mph47%29.95 "HgN/A
2:20 PM72 °FScattered clouds.10 mph50%29.95 "HgN/A
1:20 PM72 °FScattered clouds.8 mph47%29.95 "HgN/A
12:20 PM70 °FScattered clouds.10 mph57%29.98 "HgN/A
11:20 AM68 °FPassing clouds.9 mph56%29.98 "HgN/A
10:20 AM66 °FScattered clouds.10 mph64%29.98 "HgN/A
9:20 AM64 °FScattered clouds.7 mph73%30.01 "HgN/A
8:20 AM59 °FPassing clouds.6 mph82%30.01 "HgN/A
7:20 AM55 °FScattered clouds.3 mph88%30.01 "Hg4 mi
6:50 AM54 °FFog.5 mph94%30.01 "Hg3 mi
6:20 AM52 °FFog.2 mph94%30.01 "Hg1 mi
5:50 AM52 °FFog.5 mph94%30.01 "Hg0 mi
5:20 AM50 °FFog.6 mph94%30.01 "Hg1 mi
4:20 AM52 °FFog.3 mph100%30.01 "Hg1 mi
3:20 AM52 °FFog.5 mph94%30.01 "Hg3 mi
2:20 AM52 °FFog.2 mph100%30.01 "HgN/A
1:20 AM54 °FPassing clouds.6 mph94%30.01 "Hg6 mi
12:20 AM55 °FPassing clouds.6 mph94%30.04 "HgN/A
11:20 PM
Fri, May 27
55 °FPassing clouds.7 mph94%30.04 "HgN/A
10:20 PM57 °FPassing clouds.6 mph88%30.04 "HgN/A
9:20 PM61 °FScattered clouds.8 mph83%30.01 "HgN/A
8:20 PM64 °FScattered clouds.9 mph73%30.01 "HgN/A
Weather by CustomWeather, © 2016

See weather overviewHow to use our weather pages